Weather History for Cape Girardeau, MO

Change the Weather History Date:

Sunday, March 24, 2013

  Actual Average Record
Temperature  
Mean Temperature 39 °F 50 °F  
Max Temperature 44 °F 61 °F 82 °F (1967)
Min Temperature 33 °F 38 °F 11 °F (1974)
Degree Days  
Heating Degree Days 26 16  
Month to date heating degree days 575 459  
Since 1 July heating degree days 3814 3956  
Cooling Degree Days 0 0  
Month to date cooling degree days 0 0  
Year to date cooling degree days 0 0  
Moisture  
Dew Point 35 °F    
Average Humidity 86    
Maximum Humidity 96    
Minimum Humidity 75    
Precipitation  
Precipitation 0.07 in 0.15 in 1.96 in (2009)
Month to date precipitation 1.80 3.31  
Year to date precipitation 8.42 10.19  
Sea Level Pressure  
Sea Level Pressure 29.63 in    
Wind  
Wind Speed 16 mph (NNW)    
Max Wind Speed 30 mph    
Max Gust Speed 40 mph    
Visibility 6 miles    
Events Rain , Snow    
T = Trace of Precipitation, MM = Missing Value Source: NWS Daily Summary

Daily Weather History Graph

Daily Weather History Graph

Search for Another Location

Airport:

Trip Planner

Search our weather history database for the weather conditions in past years. The results will help you decide how hot, cold, wet, or windy it might be!

Date:

Astronomy

Mar. 24, 2013 Rise Set
Actual Time 6:55 AM CDT 7:13 PM CDT
Civil Twilight 6:29 AM CDT 7:40 PM CDT
Nautical Twilight 5:58 AM CDT 8:10 PM CDT
Astronomical Twilight 5:27 AM CDT 8:41 PM CDT
Moon 4:44 PM CDT (3/24) 5:02 AM CDT (3/24)
Length of Visible Light 13h 10m
Length of Day
12h 18m
Waxing Gibbous, 92% of the Moon is Illuminated
Mar 24
Waxing Gibbous
Mar 27
Full
Apr 2
Last Quarter
Apr 10
New
Apr 18
First Quarter

Hourly Weather History & Observations

Time (CDT) Temp. Windchill Dew Point Humidity Pressure Visibility Wind Dir Wind Speed Gust Speed Precip Events Conditions
12:50 AM 44.6 °F 38.4 °F 41.0 °F 87% 29.74 in 5.0 mi NE 12.7 mph - 0.00 in   Overcast
12:53 AM 44.1 °F 37.7 °F 41.0 °F 89% 29.74 in 5.0 mi NE 12.7 mph - 0.00 in   Overcast
1:53 AM 44.1 °F 38.1 °F 41.0 °F 89% 29.73 in 4.0 mi NE 11.5 mph - N/A   Overcast
2:20 AM 44.6 °F 38.8 °F 41.0 °F 87% 29.71 in 4.0 mi NE 11.5 mph - N/A   Overcast
2:53 AM 43.0 °F 36.8 °F 41.0 °F 93% 29.69 in 5.0 mi NE 11.5 mph - N/A   Overcast
3:53 AM 43.0 °F 37.7 °F 41.0 °F 93% 29.68 in 6.0 mi NNE 9.2 mph - N/A   Overcast
4:26 AM 42.8 °F 37.0 °F 39.2 °F 87% 29.67 in 2.5 mi North 10.4 mph - 0.00 in Rain Light Rain
4:51 AM 42.8 °F 36.6 °F 39.2 °F 87% 29.67 in 3.0 mi NNE 11.5 mph - 0.00 in   Overcast
4:53 AM 42.1 °F 35.2 °F 39.9 °F 92% 29.67 in 2.5 mi NNE 12.7 mph - 0.00 in   Overcast
5:11 AM 41.0 °F 33.5 °F 39.2 °F 93% 29.67 in 3.0 mi NNE 13.8 mph - N/A   Overcast
5:48 AM 39.2 °F 30.8 °F 37.4 °F 93% 29.67 in 5.0 mi NE 15.0 mph 23.0 mph N/A   Overcast
5:53 AM 39.9 °F 32.1 °F 37.0 °F 89% 29.67 in 5.0 mi NE 13.8 mph 23.0 mph N/A   Overcast
6:53 AM 39.9 °F 32.9 °F 37.0 °F 89% 29.63 in 7.0 mi ENE 11.5 mph - N/A   Overcast
7:53 AM 39.9 °F 31.4 °F 37.0 °F 89% 29.59 in 8.0 mi ENE 16.1 mph - N/A   Overcast
8:53 AM 39.9 °F 31.4 °F 37.0 °F 89% 29.52 in 6.0 mi East 16.1 mph - N/A   Overcast
9:53 AM 39.9 °F 35.1 °F 37.9 °F 93% 29.54 in 6.0 mi WNW 6.9 mph - 0.00 in Rain Light Rain
10:06 AM 39.2 °F 37.0 °F 37.4 °F 93% 29.53 in 2.5 mi North 3.5 mph - 0.03 in Rain Light Rain
10:13 AM 41.0 °F 38.0 °F 37.4 °F 87% 29.51 in 5.0 mi NE 4.6 mph - 0.03 in Rain Light Rain
10:21 AM 41.0 °F - 37.4 °F 87% 29.52 in 3.0 mi Calm Calm - 0.03 in Rain Light Rain
10:44 AM 39.2 °F 35.0 °F 37.4 °F 93% 29.51 in 3.0 mi NW 5.8 mph - 0.03 in Rain Light Rain
10:53 AM 39.9 °F 35.8 °F 37.9 °F 93% 29.53 in 4.0 mi West 5.8 mph - 0.03 in Rain Light Rain
11:04 AM 39.2 °F 33.0 °F 37.4 °F 93% 29.54 in 2.5 mi West 9.2 mph - 0.00 in Rain Light Rain
11:17 AM 39.2 °F 33.0 °F 37.4 °F 93% 29.54 in 1.8 mi West 9.2 mph - 0.03 in Rain Rain
11:24 AM 39.2 °F 32.5 °F 37.4 °F 93% 29.53 in 2.0 mi WNW 10.4 mph - 0.04 in Rain Rain
11:36 AM 39.2 °F 31.6 °F 37.4 °F 93% 29.52 in 3.0 mi WNW 12.7 mph - 0.04 in Rain Light Rain
11:53 AM 41.0 °F 34.3 °F 37.9 °F 89% 29.49 in 5.0 mi North 11.5 mph - 0.04 in   Overcast
12:11 PM 39.2 °F 31.6 °F 37.4 °F 93% 29.52 in 8.0 mi NW 12.7 mph - N/A   Overcast
12:53 PM 37.9 °F 30.5 °F 35.1 °F 89% 29.52 in 10.0 mi NW 11.5 mph - N/A   Overcast
1:34 PM 37.4 °F 30.8 °F 35.6 °F 93% 29.52 in 7.0 mi NW 9.2 mph - N/A   Overcast
1:53 PM 39.0 °F 31.8 °F 36.0 °F 89% 29.52 in 7.0 mi NNW 11.5 mph - 0.00 in   Overcast
2:53 PM 37.0 °F 27.7 °F 34.0 °F 89% 29.54 in 6.0 mi NW 16.1 mph 20.7 mph 0.00 in Rain Light Rain
3:53 PM 37.9 °F 27.9 °F 34.0 °F 86% 29.56 in 10.0 mi WNW 19.6 mph 24.2 mph 0.00 in   Overcast
4:53 PM 37.0 °F 26.2 °F 30.9 °F 79% 29.59 in 10.0 mi WNW 21.9 mph 28.8 mph 0.00 in   Overcast
5:23 PM 37.4 °F 26.1 °F 30.2 °F 75% 29.60 in 10.0 mi WNW 24.2 mph 33.4 mph N/A   Overcast
5:30 PM 37.4 °F 26.1 °F 30.2 °F 75% 29.61 in 10.0 mi WNW 24.2 mph 33.4 mph N/A   Overcast
5:53 PM 36.0 °F 24.4 °F 30.0 °F 79% 29.63 in 6.0 mi NW 23.0 mph 34.5 mph N/A   Haze
6:53 PM 35.1 °F 23.0 °F 28.0 °F 76% 29.68 in 10.0 mi WNW 24.2 mph 33.4 mph 0.00 in   Overcast
7:15 PM 35.6 °F 23.7 °F 28.4 °F 75% 29.69 in 10.0 mi WNW 24.2 mph 32.2 mph N/A   Overcast
7:31 PM 35.6 °F 24.5 °F 28.4 °F 75% 29.70 in 10.0 mi WNW 20.7 mph 28.8 mph N/A   Overcast
7:53 PM 35.1 °F 23.5 °F 28.0 °F 76% 29.73 in 10.0 mi WNW 21.9 mph 29.9 mph N/A   Overcast
8:39 PM 33.8 °F 22.5 °F 28.4 °F 81% 29.74 in 10.0 mi WNW 19.6 mph 32.2 mph N/A   Overcast
8:53 PM 34.0 °F 22.4 °F 28.0 °F 79% 29.76 in 10.0 mi WNW 20.7 mph 28.8 mph N/A   Overcast
9:53 PM 34.0 °F 22.4 °F 27.0 °F 75% 29.79 in 10.0 mi WNW 20.7 mph 28.8 mph N/A   Overcast
10:53 PM 33.1 °F 21.5 °F 27.0 °F 78% 29.82 in 9.0 mi WNW 19.6 mph 28.8 mph 0.00 in Snow Light Snow
11:53 PM 33.1 °F 21.5 °F 27.0 °F 78% 29.83 in 10.0 mi WNW 19.6 mph 25.3 mph 0.00 in   Overcast